Location: Taylor Dark Sky Site
(39.1017°N, 87.9564°W)
Time: 06:04:13
(UTC-06:00)

Amateur Radio Satellites - All Passes

Search period start: 28 January 2015 05:34
Search period end: 29 January 2015 05:34
Location: Taylor Dark Sky Site, 39.1017°N, 87.9564°W

Satellite Date Start Highest point End Downlink Frequencies (MHz)
Time Altitude Azimuth
STRAND 1 28 Jan 05:37:20 05:42:16 54° 73° (ENE) 05:47:16 437.568
Cubesat XI-IV 28 Jan 05:56:42 06:01:59 54° 100° (E) 06:07:15 437.490
DANDE 28 Jan 06:01:25 06:07:57 24° 297° (WNW) 06:14:25 436.750
RS-15 28 Jan 06:03:01 06:13:44 57° 310° (NW) 06:24:32 29.354- 29.394
CUBESAT XI-V 28 Jan 06:03:12 06:07:44 59° 260° (W) 06:12:18 437.345
CUTE-I 28 Jan 06:17:01 06:22:26 83° 103° (ESE) 06:27:50 437.470
AO-7 28 Jan 06:20:05 06:25:50 20° 306° (NW) 06:31:14 29.400- 29.500
PCSat 28 Jan 06:24:09 06:26:44 13° 320° (NW) 06:29:06 145.827
PRISM 28 Jan 06:41:39 06:43:41 13° 269° (W) 06:45:31 437.425
CUSAT 1 28 Jan 06:43:14 06:45:27 11° 307° (NW) 06:47:00 437.405
YUBILEINY 28 Jan 06:53:48 07:02:37 89° 272° (W) 07:11:28 435.215
BRITE-PL 28 Jan 07:12:30 07:15:14 14° 86° (E) 07:18:14 437.365/2234.400
STRAND 1 28 Jan 07:18:38 07:21:54 16° 270° (W) 07:24:57 437.568
Cubesat XI-IV 28 Jan 07:37:54 07:41:43 19° 295° (WNW) 07:45:22 437.490
VERMONT LUNAR 28 Jan 07:40:26 07:42:26 15° 147° (SSE) 07:44:30 437.305
HO-68 28 Jan 07:41:56 07:47:27 24° 92° (E) 07:53:10 435.675
CANX-2 28 Jan 07:52:24 07:55:29 20° 93° (E) 07:58:40 2200.000
CUTE-I 28 Jan 07:59:23 08:01:54 13° 298° (WNW) 08:04:07 437.470
AAUSAT CUBESAT 2 28 Jan 08:09:23 08:12:03 17° 92° (E) 08:14:51 437.432
CUTE 1.7 + AOD 2 28 Jan 08:16:11 08:20:01 34° 97° (E) 08:23:52 437.475
RS-15 28 Jan 08:21:27 08:29:22 21° 340° (NNW) 08:37:11 29.354- 29.394
PHONESAT 2.4 28 Jan 08:31:21 08:34:04 20° 149° (SSE) 08:36:50 2401.200-2431.200
ANTELSAT 28 Jan 08:32:57 08:35:44 16° 66° (ENE) 08:38:43 437.575/2403.000
TIGRISAT 28 Jan 08:40:56 08:44:09 19° 67° (ENE) 08:47:31 435.000
SEEDS 28 Jan 08:48:16 08:52:28 70° 102° (ESE) 08:56:37 437.485
CUBEBUG 2 28 Jan 08:48:26 08:51:21 17° 90° (E) 08:54:20 437.445
BRITE-PL 28 Jan 08:48:44 08:54:27 74° 285° (WNW) 08:59:55 437.365/2234.400
UKube-1 28 Jan 08:49:33 08:51:26 13° 90° (E) 08:53:32 .
GOMX 1 28 Jan 08:50:18 08:55:48 83° 104° (ESE) 09:01:00 467.674
YUBILEINY 28 Jan 08:53:12 08:58:24 16° 280° (W) 09:03:02 435.215
ZACube-1 28 Jan 09:01:23 09:03:59 16° 90° (E) 09:06:45 437.345
CINEMA 3 28 Jan 09:04:02 09:08:42 45° 97° (E) 09:13:11 145.822/145.860
NANOSAT C BR1 28 Jan 09:05:24 09:08:19 19° 68° (ENE) 09:11:22 145.865
DX 1 28 Jan 09:07:43 09:11:06 22° 94° (E) 09:14:36 434.975-435.025
DOVE 4 28 Jan 09:08:11 09:13:27 90° 83° (E) 09:18:26 437.250
FUNcube-1 28 Jan 09:13:12 09:16:31 21° 92° (E) 09:19:53 145.935
HUMSAT D 28 Jan 09:14:47 09:15:48 11° 88° (E) 09:17:05 437.325/437.525
COMPASS 1 28 Jan 09:16:35 09:20:44 65° 285° (WNW) 09:24:51 437.405
VERMONT LUNAR 28 Jan 09:16:42 09:20:09 60° 161° (SSE) 09:23:37 437.305
QB50P2 28 Jan 09:18:20 09:21:52 26° 70° (ENE) 09:25:30 145.880/145.840
AISAT 28 Jan 09:27:38 09:29:51 14° 90° (E) 09:32:19 437.250
CANX-2 28 Jan 09:27:46 09:31:32 31° 289° (WNW) 09:35:13 2200.000
QB50P1 28 Jan 09:27:48 09:31:35 32° 71° (ENE) 09:35:27 145.935-145.965
HO-68 28 Jan 09:28:38 09:35:40 60° 290° (WNW) 09:42:39 435.675
UWE-3 28 Jan 09:29:58 09:34:13 40° 97° (E) 09:38:21 435.000/436.395/437.385
UNISAT 6 28 Jan 09:31:33 09:36:14 64° 74° (ENE) 09:40:55 437.425
POLYITAN 1 28 Jan 09:41:25 09:45:32 47° 73° (ENE) 09:49:43 437.675
AAUSAT CUBESAT 2 28 Jan 09:44:04 09:47:53 35° 288° (WNW) 09:51:39 437.432
DELFI C3 28 Jan 09:45:30 09:49:34 89° 92° (E) 09:53:36 145.870
BUGSAT 1 28 Jan 09:45:34 09:49:21 38° 72° (ENE) 09:53:13 437.445
Oscar 11 28 Jan 09:48:57 09:53:15 69° 284° (WNW) 09:57:31 145.826/435.025
CUTE 1.7 + AOD 2 28 Jan 09:52:43 09:55:45 19° 292° (WNW) 09:58:41 437.475
VELOX 1 28 Jan 09:55:16 09:59:04 27° 95° (E) 10:02:55 145.980
POPSAT HIP 1 28 Jan 10:01:54 10:06:11 81° 76° (ENE) 10:10:30 437.405
AIST 1 28 Jan 10:03:02 10:04:22 12° 86° (E) 10:05:57
DUCHIFAT 1 28 Jan 10:05:15 10:09:31 87° 77° (ENE) 10:13:50 145.980
ANTELSAT 28 Jan 10:07:33 10:12:10 53° 261° (W) 10:16:47 437.575/2403.000
CUBEBUG 1 28 Jan 10:08:05 10:10:34 15° 91° (E) 10:13:16 437.445
PHONESAT 2.4 28 Jan 10:08:43 10:12:19 75° 164° (SSE) 10:15:57 2401.200-2431.200
SO-50 28 Jan 10:10:36 10:15:04 64° 119° (ESE) 10:19:44 436.795
TIGRISAT 28 Jan 10:16:08 10:20:38 44° 262° (W) 10:25:08 435.000
UKube-1 28 Jan 10:23:43 10:27:59 52° 287° (WNW) 10:32:13 .
CUBEBUG 2 28 Jan 10:23:59 10:28:20 42° 288° (WNW) 10:32:30 437.445
GOMX 1 28 Jan 10:30:35 10:33:12 13° 298° (WNW) 10:35:28 467.674
BRITE-PL 28 Jan 10:30:48 10:32:04 10° 300° (WNW) 10:32:56 437.365/2234.400
50 SAT 28 Jan 10:34:19 10:38:24 74° 101° (ESE) 10:42:24 437.505
ZACube-1 28 Jan 10:36:27 10:40:41 42° 287° (WNW) 10:44:46 437.345
NANOSAT C BR1 28 Jan 10:40:01 10:43:58 36° 263° (W) 10:47:56 145.865
RS-15 28 Jan 10:40:03 10:47:28 20° 16° (NNE) 10:55:17 29.354- 29.394
CINEMA 3 28 Jan 10:42:09 10:45:34 19° 294° (WNW) 10:48:44 145.822/145.860
AIST 2 28 Jan 10:42:50 10:45:34 17° 44° (NE) 10:48:22 435.215
DX 1 28 Jan 10:43:31 10:47:25 31° 290° (WNW) 10:51:16 434.975-435.025
HUMSAT D 28 Jan 10:47:54 10:52:05 56° 286° (WNW) 10:56:10 437.325/437.525
DOVE 4 28 Jan 10:48:44 10:50:27 11° 299° (WNW) 10:51:51 437.250
FUNcube-1 28 Jan 10:49:01 10:52:59 32° 289° (WNW) 10:56:47 145.935
BEESAT 2 28 Jan 10:52:02 10:56:00 40° 54° (NE) 10:59:54 435.950
QB50P2 28 Jan 10:54:10 10:57:46 25° 266° (W) 11:01:18 145.880/145.840
VERMONT LUNAR 28 Jan 10:54:48 10:58:17 68° 357° (N) 11:01:48 437.305
GONETS M04 28 Jan 11:00:39 11:07:15 24° 66° (ENE) 11:14:11
ESTCUBE 1 28 Jan 11:01:40 11:06:11 65° 102° (ESE) 11:10:41 437.505/2401.250
AISAT 28 Jan 11:02:28 11:06:52 52° 287° (WNW) 11:11:14 437.250
QB50P1 28 Jan 11:04:22 11:07:35 20° 267° (W) 11:10:42 145.935-145.965
BEESAT 3 28 Jan 11:07:10 11:11:19 67° 57° (ENE) 11:15:24 437.485
UWE-3 28 Jan 11:07:21 11:10:29 18° 293° (WNW) 11:13:24 435.000/436.395/437.385
UNISAT 6 28 Jan 11:11:29 11:13:32 12° 272° (W) 11:15:16 437.425
POLYITAN 1 28 Jan 11:19:28 11:21:49 14° 270° (W) 11:23:59 437.675
HO-68 28 Jan 11:20:20 11:22:08 11° 308° (NW) 11:23:28 435.675
BUGSAT 1 28 Jan 11:22:31 11:25:05 16° 269° (W) 11:27:30 437.445
VELOX 1 28 Jan 11:31:49 11:35:37 26° 291° (WNW) 11:39:20 145.980
SPROUT 28 Jan 11:32:47 11:36:39 31° 96° (E) 11:40:31 437.525
AIST 1 28 Jan 11:37:29 11:41:38 50° 280° (W) 11:45:48
CUBEBUG 1 28 Jan 11:42:59 11:47:15 46° 287° (WNW) 11:51:31 437.445
PCSat 28 Jan 11:44:56 11:46:47 12° 39° (NE) 11:48:51 145.827
PHONESAT 2.4 28 Jan 11:47:21 11:50:58 68° 0° (N) 11:54:37 2401.200-2431.200
Oscar 19 28 Jan 11:49:15 11:53:48 32° 69° (ENE) 11:58:25 437.125/150
SO-50 28 Jan 11:52:57 11:56:08 18° 318° (NW) 11:59:16 436.795
ITAMSAT 1 28 Jan 12:04:44 12:07:46 16° 64° (ENE) 12:11:01 435.822/435.867
SWISSCUBE 28 Jan 12:10:46 12:12:44 13° 89° (E) 12:14:59 437.505
TISAT 1 28 Jan 12:13:13 12:17:33 89° 118° (ESE) 12:21:50 437.305
AIST 2 28 Jan 12:20:23 12:24:35 56° 242° (WSW) 12:28:42 435.215
BEESAT 28 Jan 12:25:53 12:28:56 17° 91° (E) 12:32:10 436.000
ITUPSAT 1 28 Jan 12:28:59 12:32:12 18° 92° (E) 12:35:36 437.325
BEESAT 2 28 Jan 12:31:06 12:33:57 18° 249° (WSW) 12:36:39 435.950
VERMONT LUNAR 28 Jan 12:33:00 12:36:31 85° 198° (SSW) 12:40:03 437.305
ESTCUBE 1 28 Jan 12:40:38 12:42:35 12° 296° (WNW) 12:44:19 437.505/2401.250
BEESAT 3 28 Jan 12:48:23 12:48:58 10° 251° (WSW) 12:49:17 437.485
RS-15 28 Jan 12:52:54 13:03:41 49° 46° (NE) 13:15:04 29.354- 29.394
Gurwin Techsat 1B 28 Jan 12:54:04 12:58:40 32° 69° (ENE) 13:03:23 435.225
GONETS M04 28 Jan 12:56:22 13:05:00 69° 266° (W) 13:13:35
SPROUT 28 Jan 13:09:12 13:12:36 22° 291° (WNW) 13:15:54 437.525
PCSat 28 Jan 13:25:55 13:31:20 67° 59° (ENE) 13:36:44 145.827
PHONESAT 2.4 28 Jan 13:25:59 13:29:37 71° 198° (SSW) 13:33:16 2401.200-2431.200
Oscar 19 28 Jan 13:28:38 13:33:10 29° 265° (W) 13:37:38 437.125/150
AO-7 28 Jan 13:32:57 13:39:13 25° 57° (ENE) 13:45:44 29.400- 29.500
ITAMSAT 1 28 Jan 13:41:43 13:46:49 62° 259° (W) 13:51:59 435.822/435.867
SWISSCUBE 28 Jan 13:46:23 13:51:07 62° 286° (WNW) 13:55:50 437.505
HORYU 2 28 Jan 13:48:46 13:52:43 31° 70° (ENE) 13:56:42 437.375
CUSAT 1 28 Jan 13:55:17 13:59:27 19° 60° (ENE) 14:03:09 437.405
BEESAT 28 Jan 14:02:31 14:07:06 46° 288° (WNW) 14:11:38 436.000
ITUPSAT 1 28 Jan 14:05:49 14:10:22 44° 288° (WNW) 14:14:53 437.325
VERMONT LUNAR 28 Jan 14:11:28 14:14:24 24° 209° (SSW) 14:17:19 437.305
Gurwin Techsat 1B 28 Jan 14:33:59 14:38:39 30° 265° (W) 14:43:17 435.225
STARS 28 Jan 14:34:02 14:38:23 50° 100° (E) 14:42:42 437.465
KKS-1 28 Jan 14:38:13 14:42:45 88° 107° (ESE) 14:47:13 437.445
GONETS M04 28 Jan 14:58:16 15:00:26 11° 284° (WNW) 15:01:49
DANDE 28 Jan 15:03:02 15:09:47 63° 76° (ENE) 15:14:46 436.750
PHONESAT 2.4 28 Jan 15:05:11 15:07:52 19° 212° (SSW) 15:10:30 2401.200-2431.200
RS-15 28 Jan 15:05:25 15:16:22 53° 248° (WSW) 15:27:40 29.354- 29.394
PCSat 28 Jan 15:11:05 15:14:16 15° 255° (WSW) 15:17:10 145.827
M-CUBED/EXP-1 PRIME 28 Jan 15:16:12 15:19:28 56° 105° (ESE) 15:22:50 437.505
AO-7 28 Jan 15:22:56 15:31:19 76° 255° (WSW) 15:39:43 29.400- 29.500
HORYU 2 28 Jan 15:25:47 15:29:26 23° 266° (W) 15:32:59 437.375
O/OREOS (USA 219) 28 Jan 15:34:49 15:38:54 37° 105° (ESE) 15:43:05 437.305
CUSAT 1 28 Jan 15:37:16 15:43:21 53° 268° (W) 15:47:50 437.405
JAS-2 28 Jan 15:39:29 15:45:01 68° 75° (ENE) 15:50:14 435.910
Cubesat XI-IV 28 Jan 15:43:11 15:43:38 10° 60° (ENE) 15:44:25 437.490
AUBIESAT-1 28 Jan 15:50:11 15:53:26 51° 290° (WNW) 15:56:45 437.475
CUTE-I 28 Jan 16:00:43 16:03:39 16° 63° (ENE) 16:06:50 437.470
MOZHAYETS 4 28 Jan 16:11:08 16:15:16 33° 96° (E) 16:19:25
STARS 28 Jan 16:11:53 16:14:29 15° 295° (WNW) 16:16:56 437.465
DANDE 28 Jan 16:48:18 16:52:11 16° 280° (W) 16:55:15 436.750
O/OREOS (USA 219) 28 Jan 17:15:02 17:18:29 21° 303° (WNW) 17:21:52 437.305
Cubesat XI-IV 28 Jan 17:17:40 17:22:58 80° 75° (ENE) 17:28:20 437.490
AO-7 28 Jan 17:21:58 17:25:40 13° 274° (W) 17:28:40 29.400- 29.500
JAS-2 28 Jan 17:28:06 17:30:43 13° 270° (W) 17:32:57 435.910
CUTE-I 28 Jan 17:37:56 17:43:14 68° 258° (WSW) 17:48:34 437.470
MOZHAYETS 4 28 Jan 17:48:46 17:52:21 22° 291° (WNW) 17:55:49
STRAND 1 28 Jan 17:49:52 17:53:33 20° 92° (E) 17:57:24 437.568
YUBILEINY 28 Jan 17:59:48 18:05:32 21° 82° (E) 18:11:43 435.215
CUBESAT XI-V 28 Jan 18:01:12 18:05:32 37° 97° (E) 18:09:54 437.345
HO-68 28 Jan 18:11:10 18:15:25 18° 57° (ENE) 18:20:00 435.675
BRITE-PL 28 Jan 18:22:39 18:25:08 14° 62° (ENE) 18:27:57 437.365/2234.400
PRISM 28 Jan 18:23:02 18:27:13 87° 277° (W) 18:31:22 437.425
SO-50 28 Jan 18:43:07 18:47:50 44° 53° (NE) 18:52:33 436.795
CANX-2 28 Jan 18:45:37 18:47:46 14° 67° (ENE) 18:50:06 2200.000
AAUSAT CUBESAT 2 28 Jan 19:01:19 19:02:32 11° 65° (ENE) 19:03:58 437.432
Cubesat XI-IV 28 Jan 19:01:56 19:03:50 11° 273° (W) 19:05:21 437.490
JUGNU 28 Jan 19:08:03 19:09:44 11° 180° (S) 19:11:26 437.505
CUTE 1.7 + AOD 2 28 Jan 19:08:35 19:11:54 23° 70° (ENE) 19:15:19 437.475
STRAND 1 28 Jan 19:28:06 19:33:01 45° 289° (WNW) 19:37:53 437.568
CUBESAT XI-V 28 Jan 19:39:11 19:42:48 22° 292° (WNW) 19:46:17 437.345
SEEDS 28 Jan 19:39:25 19:43:26 42° 73° (ENE) 19:47:28 437.485
UKube-1 28 Jan 19:45:18 19:46:03 11° 63° (ENE) 19:47:05 .
CUBEBUG 2 28 Jan 19:46:16 19:48:50 15° 65° (ENE) 19:51:36 437.445
SRMSAT 28 Jan 19:47:26 19:48:45 11° 175° (S) 19:50:06 437.500
YUBILEINY 28 Jan 19:52:51 20:01:32 76° 279° (W) 20:10:17 435.215
HO-68 28 Jan 19:55:11 20:02:20 89° 254° (WSW) 20:09:33 435.675
GOMX 1 28 Jan 19:56:40 20:01:41 77° 76° (ENE) 20:07:03 467.674
ZACube-1 28 Jan 19:57:21 19:59:22 13° 65° (ENE) 20:01:36 437.345
BRITE-PL 28 Jan 19:57:59 20:02:57 75° 259° (W) 20:08:22 437.365/2234.400
DX 1 28 Jan 20:03:04 20:05:54 18° 67° (ENE) 20:08:55 434.975-435.025
CINEMA 3 28 Jan 20:04:17 20:08:48 38° 71° (ENE) 20:13:29 145.822/145.860
COMPASS 1 28 Jan 20:06:42 20:10:55 73° 77° (ENE) 20:15:08 437.405
FUNcube-1 28 Jan 20:08:36 20:11:28 17° 67° (ENE) 20:14:29 145.935
DOVE 4 28 Jan 20:11:59 20:16:59 79° 76° (ENE) 20:22:16 437.250
CANX-2 28 Jan 20:19:10 20:23:21 50° 261° (W) 20:27:33 2200.000
ISS 28 Jan 20:23:42 20:24:28 11° 129° (SE) 20:25:23 145.825
SO-50 28 Jan 20:24:18 20:28:10 23° 248° (WSW) 20:31:53 436.795
AISAT 28 Jan 20:25:56 20:27:29 12° 64° (ENE) 20:29:17 437.250
UWE-3 28 Jan 20:25:58 20:30:03 31° 70° (ENE) 20:34:14 435.000/436.395/437.385
DELFI C3 28 Jan 20:32:36 20:36:31 46° 74° (ENE) 20:40:27 145.870
AAUSAT CUBESAT 2 28 Jan 20:33:35 20:37:45 61° 260° (W) 20:41:56 437.432
Oscar 11 28 Jan 20:42:20 20:46:41 78° 77° (ENE) 20:51:03 145.826/435.025
CUTE 1.7 + AOD 2 28 Jan 20:43:57 20:47:44 29° 265° (W) 20:51:28 437.475
VELOX 1 28 Jan 20:52:32 20:55:54 22° 68° (ENE) 20:59:24 145.980
CUBEBUG 1 28 Jan 21:04:52 21:06:18 12° 65° (ENE) 21:07:59 437.445
SEEDS 28 Jan 21:16:55 21:19:32 15° 269° (W) 21:21:57 437.485
UKube-1 28 Jan 21:17:24 21:21:43 71° 258° (WSW) 21:26:04 .
CUBEBUG 2 28 Jan 21:20:25 21:25:05 59° 260° (W) 21:29:50 437.445
50 SAT 28 Jan 21:20:40 21:24:30 38° 73° (ENE) 21:28:22 437.505
UNISAT 6 28 Jan 21:26:50 21:29:04 14° 89° (E) 21:31:30 437.425
ZACube-1 28 Jan 21:30:42 21:35:16 64° 260° (W) 21:39:53 437.345
SRMSAT 28 Jan 21:35:59 21:37:02 10° 186° (S) 21:38:01 437.500
DX 1 28 Jan 21:37:49 21:41:54 40° 262° (W) 21:46:01 434.975-435.025
HUMSAT D 28 Jan 21:38:24 21:42:45 86° 76° (ENE) 21:47:08 437.325/437.525
GOMX 1 28 Jan 21:38:39 21:40:37 12° 275° (W) 21:42:15 467.674
CINEMA 3 28 Jan 21:42:14 21:46:09 23° 268° (W) 21:50:02 145.822/145.860
FUNcube-1 28 Jan 21:43:02 21:47:28 47° 261° (W) 21:51:57 145.935
AIST 1 28 Jan 21:45:55 21:49:49 33° 76° (ENE) 21:53:48
HO-68 28 Jan 21:47:24 21:51:09 14° 273° (W) 21:54:25 435.675
POPSAT HIP 1 28 Jan 21:50:05 21:52:25 15° 91° (E) 21:54:56 437.405
DUCHIFAT 1 28 Jan 21:52:56 21:55:27 16° 91° (E) 21:58:09 145.980
DOVE 4 28 Jan 21:53:54 21:55:33 11° 275° (W) 21:56:51 437.250
YUBILEINY 28 Jan 21:55:44 22:00:15 14° 302° (WNW) 22:04:10 435.215
ISS 28 Jan 21:57:20 22:00:36 73° 323° (NW) 22:03:54 145.825
AISAT 28 Jan 21:59:13 22:03:37 66° 259° (WSW) 22:08:05 437.250
ESTCUBE 1 28 Jan 22:00:19 22:04:39 52° 74° (ENE) 22:09:02 437.505/2401.250
ANTELSAT 28 Jan 22:01:23 22:05:26 34° 96° (E) 22:09:25 437.575/2403.000
UWE-3 28 Jan 22:02:44 22:06:37 25° 266° (W) 22:10:29 435.000/436.395/437.385
TIGRISAT 28 Jan 22:09:22 22:13:35 41° 98° (E) 22:17:42 435.000
DELFI C3 28 Jan 22:10:11 22:12:05 13° 270° (W) 22:13:47 145.870
NANOSAT C BR1 28 Jan 22:26:15 22:30:15 38° 97° (E) 22:34:16 145.865
SPROUT 28 Jan 22:26:33 22:29:48 22° 69° (ENE) 22:33:10 437.525
VELOX 1 28 Jan 22:28:22 22:32:20 32° 263° (W) 22:36:20 145.980
CUBEBUG 1 28 Jan 22:37:54 22:42:12 64° 259° (WSW) 22:46:34 437.445
QB50P2 28 Jan 22:40:05 22:44:20 56° 100° (E) 22:48:33 145.880/145.840
QB50P1 28 Jan 22:49:34 22:53:53 73° 101° (ESE) 22:58:10 145.935-145.965
50 SAT 28 Jan 22:57:13 22:59:50 16° 269° (W) 23:02:17 437.505
UNISAT 6 28 Jan 23:01:57 23:06:16 48° 287° (WNW) 23:10:27 437.425
POLYITAN 1 28 Jan 23:04:00 23:08:20 76° 284° (WNW) 23:12:37 437.675
BUGSAT 1 28 Jan 23:04:06 23:08:24 82° 102° (ESE) 23:12:41 437.445
TISAT 1 28 Jan 23:04:29 23:08:38 57° 74° (ENE) 23:12:50 437.305
SWISSCUBE 28 Jan 23:16:48 23:19:09 14° 64° (ENE) 23:21:45 437.505
AIST 1 28 Jan 23:24:11 23:27:18 19° 271° (W) 23:30:17
POPSAT HIP 1 28 Jan 23:24:29 23:28:37 44° 287° (WNW) 23:32:42 437.405
DUCHIFAT 1 28 Jan 23:27:29 23:31:34 41° 287° (WNW) 23:35:36 145.980
BEESAT 28 Jan 23:31:47 23:34:58 19° 66° (ENE) 23:38:19 436.000
ITUPSAT 1 28 Jan 23:35:11 23:38:31 20° 67° (ENE) 23:42:00 437.325
ISS 28 Jan 23:35:33 23:37:36 15° 341° (NNW) 23:39:38 145.825
ANTELSAT 28 Jan 23:38:42 23:42:03 20° 292° (WNW) 23:45:13 437.575/2403.000
ESTCUBE 1 28 Jan 23:39:34 23:41:56 14° 270° (W) 23:44:04 437.505/2401.250
TIGRISAT 28 Jan 23:47:03 23:50:03 17° 293° (WNW) 23:52:51 435.000
GONETS M04 29 Jan 00:00:49 00:07:48 29° 85° (E) 00:15:03
SPROUT 29 Jan 00:01:54 00:05:45 31° 264° (W) 00:09:36 437.525
NANOSAT C BR1 29 Jan 00:02:54 00:05:53 18° 293° (WNW) 00:08:45 145.865
Oscar 19 29 Jan 00:04:04 00:05:38 12° 88° (E) 00:07:33 437.125/150
QB50P2 29 Jan 00:17:48 00:19:49 13° 295° (WNW) 00:21:38 145.880/145.840
QB50P1 29 Jan 00:28:36 00:29:15 10° 296° (WNW) 00:29:39 145.935-145.965
TISAT 1 29 Jan 00:43:31 00:44:56 11° 271° (W) 00:46:04 437.305
SWISSCUBE 29 Jan 00:51:53 00:56:35 62° 259° (W) 01:01:19 437.505
BEESAT 3 29 Jan 01:01:44 01:04:16 16° 111° (ESE) 01:06:57 437.485
AUBIESAT-1 29 Jan 01:05:30 01:07:06 12° 64° (ENE) 01:08:50 437.475
BEESAT 29 Jan 01:07:58 01:12:32 45° 261° (W) 01:17:06 436.000
ITUPSAT 1 29 Jan 01:11:38 01:16:10 42° 262° (W) 01:20:41 437.325
Gurwin Techsat 1B 29 Jan 01:12:50 01:15:12 13° 88° (E) 01:17:52 435.225
STARS 29 Jan 01:30:05 01:34:12 39° 71° (ENE) 01:38:23 437.465
KKS-1 29 Jan 01:35:11 01:39:37 69° 75° (ENE) 01:44:07 437.445
Oscar 19 29 Jan 01:40:31 01:45:41 75° 284° (WNW) 01:50:47 437.125/150
O/OREOS (USA 219) 29 Jan 01:45:27 01:50:00 60° 66° (ENE) 01:54:33 437.305
GONETS M04 29 Jan 01:55:34 02:04:12 58° 283° (WNW) 02:12:47
ITAMSAT 1 29 Jan 01:55:41 02:00:46 52° 99° (E) 02:05:53 435.822/435.867
M-CUBED/EXP-1 PRIME 29 Jan 02:04:11 02:08:16 71° 71° (ENE) 02:12:02 437.505
AIST 2 29 Jan 02:17:28 02:21:25 40° 116° (ESE) 02:25:28 435.215
BEESAT 2 29 Jan 02:23:27 02:27:33 70° 303° (WNW) 02:31:44 435.950
DANDE 29 Jan 02:30:36 02:35:22 18° 81° (E) 02:40:47 436.750
AUBIESAT-1 29 Jan 02:37:51 02:41:48 49° 255° (WSW) 02:45:28 437.475
BEESAT 3 29 Jan 02:38:12 02:42:07 42° 307° (NW) 02:46:05 437.485
Gurwin Techsat 1B 29 Jan 02:50:29 02:55:48 70° 286° (WNW) 03:01:05 435.225
ISS 29 Jan 02:50:32 02:52:49 17° 21° (NNE) 02:55:09 145.825
CUSAT 1 29 Jan 02:58:57 03:05:53 34° 88° (E) 03:13:16 437.405
STARS 29 Jan 03:07:46 03:10:53 18° 268° (W) 03:13:53 437.465
MOZHAYETS 4 29 Jan 03:12:18 03:16:11 28° 70° (ENE) 03:20:09
KKS-1 29 Jan 03:16:20 03:16:51 10° 272° (W) 03:17:03 437.445
HORYU 2 29 Jan 03:17:19 03:21:47 74° 102° (ESE) 03:26:12 437.375
RS-15 29 Jan 03:17:25 03:25:59 29° 106° (ESE) 03:34:58 29.354- 29.394
AO-7 29 Jan 03:26:10 03:33:50 41° 98° (E) 03:41:33 29.400- 29.500
O/OREOS (USA 219) 29 Jan 03:27:01 03:28:58 12° 261° (W) 03:30:40 437.305
ITAMSAT 1 29 Jan 03:36:12 03:39:56 19° 295° (WNW) 03:43:29 435.822/435.867
AIST 2 29 Jan 03:56:54 04:00:14 21° 313° (NW) 04:03:31 435.215
PCSat 29 Jan 04:06:12 04:11:36 80° 118° (ESE) 04:17:04 145.827
DANDE 29 Jan 04:09:39 04:17:45 84° 99° (E) 04:26:31 436.750
ISS 29 Jan 04:26:24 04:29:42 84° 224° (SW) 04:33:01 145.825
JAS-2 29 Jan 04:32:51 04:38:32 68° 102° (ESE) 04:44:58 435.910
CUSAT 1 29 Jan 04:40:37 04:48:38 56° 285° (WNW) 04:56:53 437.405
MOZHAYETS 4 29 Jan 04:49:33 04:53:26 26° 266° (W) 04:57:14
HORYU 2 29 Jan 04:56:54 04:57:55 11° 297° (WNW) 04:58:42 437.375
CUBESAT XI-V 29 Jan 05:03:50 05:07:52 32° 71° (ENE) 05:11:58 437.345
STRAND 1 29 Jan 05:04:41 05:08:50 27° 68° (ENE) 05:13:07 437.568
PRISM 29 Jan 05:12:28 05:16:30 58° 74° (ENE) 05:20:33 437.425
